This is the latest recevied weather packets stored in our database for station/object W0BJ. If no packets are shown the sender has not sent any weather packets the latest 10 day(s).
| Time | Temp. | Humidity | Pressure | Rain* | Wind** | Luminosity | Snow |
|---|---|---|---|---|---|---|---|
| 1777585873 | 20° C | 35% | 1017.5 hPa | 0 mm | - | - | - |
| 1777585272 | 20° C | 33% | 1017.6 hPa | 0 mm | - | - | - |
| 1777585098 | 20.56° C | 33% | 1017.6 hPa | 0 mm | - | - | - |
| 1777584672 | 21.11° C | 33% | 1017.9 hPa | 0 mm | - | - | - |
| 1777584198 | 21.67° C | 33% | 1017.8 hPa | 0 mm | - | - | - |
| 1777584072 | 21.67° C | 33% | 1017.9 hPa | 0 mm | - | - | - |
| 1777583471 | 20.56° C | 33% | 1018.1 hPa | 0 mm | - | - | - |
| 1777583299 | 20° C | 35% | 1018.1 hPa | 0 mm | - | - | - |
| 1777582873 | 20° C | 33% | 1018.2 hPa | 0 mm | - | - | - |
| 1777582399 | 20° C | 34% | 1018.4 hPa | 0 mm | - | - | - |
| 1777582272 | 20° C | 35% | 1018.4 hPa | 0 mm | - | - | - |
| 1777581672 | 20° C | 33% | 1018.6 hPa | 0 mm | - | - | - |
| 1777581498 | 20° C | 34% | 1018.7 hPa | 0 mm | - | - | - |
| 1777581071 | 20.56° C | 33% | 1018.8 hPa | 0 mm | - | - | - |
| 1777580599 | 21.11° C | 33% | 1018.8 hPa | 0 mm | - | - | - |
| 1777580471 | 21.11° C | 34% | 1018.8 hPa | 0 mm | - | - | - |
| 1777579870 | 21.11° C | 31% | 1018.9 hPa | 0 mm | - | - | - |
| 1777579698 | 21.67° C | 33% | 1018.9 hPa | 0 mm | - | - | - |
| 1777579272 | 21.67° C | 34% | 1018.9 hPa | 0 mm | - | - | - |
| 1777578797 | 20.56° C | 32% | 1019 hPa | 0 mm | - | - | - |
| 1777578671 | 20.56° C | 33% | 1018.9 hPa | 0 mm | - | - | - |
| 1777578071 | 21.11° C | 33% | 1019 hPa | 0 mm | - | - | - |
| 1777577901 | 20.56° C | 33% | 1019 hPa | 0 mm | - | - | - |
| 1777577420 | 20.56° C | 33% | 1019.1 hPa | 0 mm | - | - | - |
| 1777576998 | 21.11° C | 34% | 1019.2 hPa | 0 mm | - | - | - |
* Rain latest hour (hover to see other rain measurements)
** Current wind speed in m/s (hover to see current wind gust speed)